Orbital Elements at Epoch 2459200.5 (2020-Dec-17.0) TDB
Reference: JPL 23 (heliocentric ecliptic J2000)
Element | Value | Uncertainty (1-sigma) | Units |
e | .1627813103754464 | 4.3419e-08 | |
a | 2.417283281095498 | 9.489e-09 | au |
q | 2.023794741050114 | 1.0801e-07 | au |
i | 3.640050312051875 | 3.9267e-06 | deg |
node | 242.6164031138226 | 7.8748e-05 | deg |
peri | 238.5224114529871 | 8.0242e-05 | deg |
M | 290.3152277051925 | 1.5283e-05 | deg |
tp | 2459466.220544567300 (2021-Sep-08.72054457) | 5.8497e-05 | TDB |
period | 1372.744616851622 3.76 | 8.083e-06 2.213e-08 | d yr |
n | .2622483421757332 | 1.5442e-09 | deg/d |
Q | 2.810771821140881 | 1.1034e-08 | au |
|
| | Orbit Determination Parameters
Additional Information
|